Regional Weather Roundup
Issued by NWS

Home | Current Version | Previous Version | Text Only | Print | Product List | Glossary Off
Versions: 1 2 3 4 5 6 7 8 9 10 11 12 13 14 15 16 17 18 19 20 21 22 23 24 25 26 27 28 29 30 31 32 33 34 35 36 37 38 39 40 41 42 43 44 45 46 47 48 49 50

000
ASUS44 KOUN 250810
RWROK

WEATHER ROUNDUP FOR OKLAHOMA
NATIONAL WEATHER SERVICE NORMAN OK
300 AM CDT WED APR 25 2018

NOTE: "FAIR" INDICATES FEW OR NO CLOUDS BELOW 12,000 FEET WITH NO
      SIGNIFICANT WEATHER AND/OR OBSTRUCTIONS TO VISIBILITY.

OKZ001>007-009>012-014-015-017-250900-
NORTHWEST OKLAHOMA AND THE PANHANDLE

CITY           SKY/WX    TMP DP  RH WIND       PRES   REMARKS
GAGE           LGT RAIN  42  40  92 NW16G24   30.31F WCI  34
GUYMON         LGT RAIN  36  36 100 NW10      30.37S WCI  28
ENID/WOODRING  DRIZZLE   48  45  87 N25G32    30.19S
$$

OKZ016-021>023-033>039-044-045-250900-
SOUTHWEST OKLAHOMA

CITY           SKY/WX    TMP DP  RH WIND       PRES   REMARKS
LAWTON/REGL    CLOUDY    57  47  69 N22G31    30.16R
LAWTON/FT SILL CLOUDY    55  48  76 N24G36    30.14R
FREDERICK      CLOUDY    55  43  63 N26G33    30.16S
CLINTON        CLOUDY    48  39  71 N28G39    30.23F
HOBART         CLOUDY    52  41  66 N24G32    30.22S
ALTUS AFB      CLOUDY    53  39  58 N21G26    30.21R
$$

OKZ018>020-024>031-250900-
CENTRAL OKLAHOMA

CITY           SKY/WX    TMP DP  RH WIND       PRES   REMARKS
OKLAHOMA CITY  CLOUDY    51  44  77 N24G33    30.16S
OKC/WILEY POST CLOUDY    52  45  77 N22G32    30.18S
OKC/TINKER AFB LGT RAIN  53  46  78 N21       30.15R
STILLWATER     CLOUDY    52  44  74 N21G28    30.16S
GUTHRIE        CLOUDY    52  44  74 NW16G25   30.19S
$$

OKZ008-013-054>072-250900-
NORTHEAST OKLAHOMA

CITY           SKY/WX    TMP DP  RH WIND       PRES   REMARKS
TULSA          CLOUDY    55  46  71 NW10      30.07F
TULSA/JONES    CLOUDY    60  46  59 NW5       30.09F
PONCA CITY     CLOUDY    50  44  80 N13G23    30.18R
BARTLESVILLE   CLOUDY    55  47  74 VRB5      30.14R
MUSKOGEE       PTCLDY    54  50  86 NW7       30.08F
$$

OKZ032-040>043-046>053-073>077-250900-
SOUTH CENTRAL/SOUTHEAST OKLAHOMA

CITY           SKY/WX    TMP DP  RH WIND       PRES   REMARKS
ARDMORE/DWNTWN CLOUDY    64  46  52 N3        30.09R
MCALESTER      CLOUDY    54  47  77 CALM      30.07F
$$





USA.gov is the U.S. government's official web portal to all federal, state and local government web resources and services.